EW8839 Weather Reports


Display with metric or nautical units.
time (UTC)temp
F
wind
direction
speed
MPH
gust
MPH
rain 1hr
in
rain 24hr
in
rain mn
in
humidity
%
barometer
mb
20260505022503 61 113 0.0 4.0 0.00 0.00 0.00 69 1009.7
20260505022017 61 85 0.0 2.0 0.00 0.00 0.00 68 1009.7
20260505021532 61 85 0.0 3.0 0.00 0.00 0.00 68 1009.7
20260505021048 61 114 0.0 3.0 0.00 0.00 0.00 68 1009.7
20260505020503 61 86 0.0 1.0 0.00 0.00 0.00 67 1009.8
20260505020018 62 86 0.0 1.0 0.00 0.00 0.00 67 1009.8
20260505015533 62 86 0.0 1.0 0.00 0.00 0.00 66 1009.8
20260505015052 62 86 0.0 1.0 0.00 0.00 0.00 66 1009.8
20260505014505 62 86 0.0 3.0 0.00 0.00 0.00 65 1009.7
20260505014003 62 101 0.0 3.0 0.00 0.00 0.00 65 1009.7
20260505013518 63 88 0.0 3.0 0.00 0.00 0.00 65 1009.7
20260505013039 63 88 0.0 6.0 0.00 0.00 0.00 64 1009.7
20260505012551 63 93 0.0 6.0 0.00 0.00 0.00 64 1009.7
20260505012003 63 88 0.0 2.0 0.00 0.00 0.00 63 1009.7
20260505011520 63 107 0.0 3.0 0.00 0.00 0.00 62 1009.6
20260505011038 64 130 0.0 2.0 0.00 0.00 0.00 61 1009.6
20260505010552 64 91 0.0 2.0 0.00 0.00 0.00 59 1009.5
20260505010108 64 86 0.0 3.0 0.00 0.00 0.00 58 1009.3
20260505005554 64 94 0.0 3.0 0.00 0.00 0.00 56 1009.3
20260505005007 65 108 0.0 2.0 0.00 0.00 0.00 54 1009.2
20260505004545 65 94 0.0 2.0 0.00 0.00 0.00 51 1009.2
20260505004041 65 100 0.0 1.0 0.00 0.00 0.00 50 1009.2
20260505003555 66 100 0.0 0.0 0.00 0.00 0.00 49 1009.2
20260505003100 66 109 0.0 0.0 0.00 0.00 0.00 49 1009.1
20260505002603 66 109 0.0 0.0 0.00 0.00 0.00 48 1009.0
20260505002013 67 115 0.0 0.0 0.00 0.00 0.00 48 1008.9
20260505001535 67 115 0.0 1.0 0.00 0.00 0.00 47 1008.8
20260505001043 67 115 0.0 1.0 0.00 0.00 0.00 47 1008.8
20260505000600 68 115 0.0 2.0 0.00 0.00 0.00 46 1008.8
20260505000016 68 120 0.0 2.0 0.00 0.00 0.00 46 1008.7
20260504235530 68 121 0.0 2.0 0.00 0.00 0.00 45 1008.7
20260504235047 69 121 0.0 1.0 0.00 0.00 0.00 45 1008.7
20260504234549 69 116 0.0 1.0 0.00 0.00 0.00 45 1008.6
20260504234049 70 117 0.0 2.0 0.00 0.00 0.00 44 1008.6
20260504233603 70 117 0.0 1.0 0.00 0.00 0.00 44 1008.6
20260504233021 70 117 0.0 1.0 0.00 0.00 0.00 42 1008.5
20260504232533 71 140 0.0 1.0 0.00 0.00 0.00 43 1008.5
20260504232050 71 166 0.0 4.0 0.00 0.00 0.00 41 1008.5
20260504231503 71 162 0.0 6.0 0.00 0.00 0.00 41 1008.5
20260504231006 71 186 0.0 6.0 0.00 0.00 0.00 41 1008.4
20260504230504 71 187 1.0 6.0 0.00 0.00 0.00 40 1008.4
20260504230020 71 129 0.0 7.0 0.00 0.00 0.00 41 1008.5
20260504225535 71 152 3.0 7.0 0.00 0.00 0.00 40 1008.6
20260504225053 72 202 0.0 8.0 0.00 0.00 0.00 40 1008.5
20260504224551 72 163 3.0 15.0 0.00 0.00 0.00 40 1008.5
20260504224053 72 155 1.0 15.0 0.00 0.00 0.00 40 1008.4
20260504223507 72 150 2.0 10.0 0.00 0.00 0.00 39 1008.3
20260504223021 73 127 1.0 4.0 0.00 0.00 0.00 39 1008.4
20260504222540 73 109 1.0 5.0 0.00 0.00 0.00 39 1008.3
20260504222054 73 150 0.0 5.0 0.00 0.00 0.00 39 1008.4
20260504221506 73 188 1.0 5.0 0.00 0.00 0.00 38 1008.4
20260504221007 73 142 2.0 8.0 0.00 0.00 0.00 38 1008.5
20260504220523 73 215 1.0 8.0 0.00 0.00 0.00 38 1008.6
20260504220037 73 190 2.0 7.0 0.00 0.00 0.00 38 1008.5
20260504215552 73 210 3.0 7.0 0.00 0.00 0.00 37 1008.6
20260504215008 73 198 2.0 10.0 0.00 0.00 0.00 38 1008.5
20260504214519 73 193 3.0 10.0 0.00 0.00 0.00 38 1008.5
20260504214035 73 182 3.0 6.0 0.00 0.00 0.00 38 1008.4
20260504213552 73 152 0.0 7.0 0.00 0.00 0.00 38 1008.4
20260504213016 73 159 1.0 11.0 0.00 0.00 0.00 38 1008.3
20260504212506 73 134 2.0 15.0 0.00 0.00 0.00 38 1008.4
20260504212021 73 132 1.0 15.0 0.00 0.00 0.00 38 1008.5
20260504211537 73 161 2.0 8.0 0.00 0.00 0.00 37 1008.3
20260504211052 73 139 2.0 8.0 0.00 0.00 0.00 37 1008.4
20260504210506 74 165 2.0 6.0 0.00 0.00 0.00 36 1008.4
20260504210019 74 102 0.0 7.0 0.00 0.00 0.00 37 1008.4
20260504205535 73 136 2.0 9.0 0.00 0.00 0.00 37 1008.4
20260504205052 73 149 1.0 10.0 0.00 0.00 0.00 37 1008.4
20260504204508 73 223 3.0 10.0 0.00 0.00 0.00 36 1008.4
20260504204006 73 198 2.0 9.0 0.00 0.00 0.00 36 1008.4
20260504203523 73 221 3.0 9.0 0.00 0.00 0.00 36 1008.4
20260504203038 74 264 2.0 5.0 0.00 0.00 0.00 36 1008.4
20260504202554 74 231 1.0 5.0 0.00 0.00 0.00 36 1008.6
20260504202007 74 182 0.0 7.0 0.00 0.00 0.00 36 1008.4
20260504201526 73 231 1.0 7.0 0.00 0.00 0.00 36 1008.5
20260504201040 73 151 1.0 7.0 0.00 0.00 0.00 37 1008.4
20260504200555 73 124 1.0 5.0 0.00 0.00 0.00 37 1008.6
20260504200056 73 212 1.0 12.0 0.00 0.00 0.00 36 1008.6
20260504195509 73 208 4.0 12.0 0.00 0.00 0.00 36 1008.7
20260504195027 73 114 2.0 5.0 0.00 0.00 0.00 36 1008.6
20260504194549 73 234 1.0 5.0 0.00 0.00 0.00 36 1008.8
20260504194059 73 236 0.0 6.0 0.00 0.00 0.00 37 1008.8
20260504193513 72 130 2.0 9.0 0.00 0.00 0.00 36 1008.9
20260504193028 72 119 3.0 10.0 0.00 0.00 0.00 37 1008.9
20260504192543 72 236 3.0 12.0 0.00 0.00 0.00 36 1009.1
20260504192103 72 188 3.0 12.0 0.00 0.00 0.00 38 1009.3
20260504191623 72 161 0.0 6.0 0.00 0.00 0.00 39 1009.3
20260504191102 72 101 0.0 8.0 0.00 0.00 0.00 38 1009.3
20260504190515 72 140 1.0 9.0 0.00 0.00 0.00 37 1009.4
20260504190030 71 233 4.0 9.0 0.00 0.00 0.00 38 1009.5
20260504185548 72 178 0.0 10.0 0.00 0.00 0.00 40 1009.4
20260504185102 71 172 2.0 10.0 0.00 0.00 0.00 39 1009.7
20260504184503 71 194 3.0 10.0 0.00 0.00 0.00 37 1009.8
20260504184005 71 177 0.0 9.0 0.00 0.00 0.00 39 1009.8
20260504183519 71 196 3.0 9.0 0.00 0.00 0.00 38 1010.0
20260504183035 71 190 1.0 7.0 0.00 0.00 0.00 39 1010.0
20260504182553 71 234 0.0 7.0 0.00 0.00 0.00 37 1010.1
20260504182051 71 152 1.0 10.0 0.00 0.00 0.00 38 1010.0
20260504181552 70 194 2.0 18.0 0.00 0.00 0.00 38 1010.2
20260504181005 71 219 4.0 18.0 0.00 0.00 0.00 37 1010.3
20260504180520 70 200 0.0 12.0 0.00 0.00 0.00 41 1010.2
20260504180037 70 146 2.0 12.0 0.00 0.00 0.00 39 1010.5
20260504175552 70 200 3.0 17.0 0.00 0.00 0.00 37 1010.4
20260504175053 70 235 0.0 17.0 0.00 0.00 0.00 38 1010.6
20260504174551 70 212 2.0 12.0 0.00 0.00 0.00 41 1010.5
20260504174003 70 115 4.0 12.0 0.00 0.00 0.00 39 1010.8
20260504173521 70 179 1.0 12.0 0.00 0.00 0.00 39 1010.7
20260504173038 70 247 2.0 12.0 0.00 0.00 0.00 39 1010.7
20260504172550 69 107 1.0 8.0 0.00 0.00 0.00 40 1010.7
20260504172054 69 180 0.0 14.0 0.00 0.00 0.00 41 1010.8
20260504171553 69 146 4.0 15.0 0.00 0.00 0.00 39 1011.0
20260504171005 69 213 1.0 11.0 0.00 0.00 0.00 42 1011.1
20260504170518 68 177 1.0 11.0 0.00 0.00 0.00 41 1011.1
20260504151031 65 157 2.0 11.0 0.00 0.00 0.00 51 1012.4
20260504150545 65 148 1.0 8.0 0.00 0.00 0.00 50 1012.4
20260504141042 62 159 1.0 8.0 0.00 0.00 0.00 60 1012.6
20260504140553 61 151 1.0 9.0 0.00 0.00 0.00 60 1012.6
20260504140103 61 100 1.0 9.0 0.00 0.00 0.00 60 1012.7
20260504130604 59 154 0.0 7.0 0.00 0.00 0.00 64 1013.2
20260504110544 47 154 0.0 0.0 0.00 0.00 0.00 82 1014.1
20260504100525 47 190 0.0 5.0 0.00 0.00 0.00 77 1014.1
20260504081549 49 153 0.0 2.0 0.00 0.00 0.00 71 1013.7
20260504081005 48 188 0.0 0.0 0.00 0.00 0.00 71 1013.7
20260504080520 48 159 0.0 2.0 0.00 0.00 0.00 71 1013.8
20260504050556 47 167 0.0 2.0 0.00 0.00 0.00 67 1013.4
20260504050113 46 166 0.0 2.0 0.00 0.00 0.00 67 1013.4
20260504045600 46 167 0.0 0.0 0.00 0.00 0.00 67 1013.4
20260504045015 46 167 0.0 0.0 0.00 0.00 0.00 68 1013.3
20260504044535 46 167 0.0 0.0 0.00 0.00 0.00 68 1013.3
20260504044047 46 167 0.0 0.0 0.00 0.00 0.00 67 1013.2
20260504043604 46 167 0.0 0.0 0.00 0.00 0.00 67 1013.2
20260504043016 47 167 0.0 0.0 0.00 0.00 0.00 65 1013.1
20260504042533 47 167 0.0 0.0 0.00 0.00 0.00 64 1013.0
20260504042049 47 167 0.0 0.0 0.00 0.00 0.00 64 1013.0
20260504041553 47 167 0.0 0.0 0.00 0.00 0.00 64 1013.0
20260504041100 47 167 0.0 0.0 0.00 0.00 0.00 64 1012.9
20260504040559 47 167 0.0 0.0 0.00 0.00 0.00 64 1012.9
20260504040016 47 167 0.0 0.0 0.00 0.00 0.00 63 1012.9
20260504035532 47 167 0.0 0.0 0.00 0.00 0.00 63 1012.8
20260504035044 47 167 0.0 0.0 0.00 0.00 0.00 63 1012.8
20260504034615 47 168 0.0 0.0 0.00 0.00 0.00 63 1012.8
20260504034001 47 167 0.0 0.0 0.00 0.00 0.00 64 1012.8
20260504033504 47 167 0.0 0.0 0.00 0.00 0.00 63 1012.8
20260504033020 47 168 0.0 0.0 0.00 0.00 0.00 63 1012.7
20260504032540 47 168 0.0 0.0 0.00 0.00 0.00 63 1012.7
20260504032053 47 168 0.0 1.0 0.00 0.00 0.00 63 1012.6
20260504031507 47 168 0.0 1.0 0.00 0.00 0.00 62 1012.6
20260504031023 48 167 0.0 1.0 0.00 0.00 0.00 63 1012.6
20260504030541 48 167 0.0 0.0 0.00 0.00 0.00 61 1012.6
20260504030114 48 167 0.0 0.0 0.00 0.00 0.00 61 1012.7
20260504025512 48 167 0.0 0.0 0.00 0.00 0.00 61 1012.7
20260504025029 48 168 0.0 0.0 0.00 0.00 0.00 61 1012.7
20260504024549 48 167 0.0 0.0 0.00 0.00 0.00 61 1012.7
20260504024101 49 167 0.0 0.0 0.00 0.00 0.00 60 1012.7
20260504023502 49 167 0.0 0.0 0.00 0.00 0.00 59 1012.7
20260504023019 49 167 0.0 1.0 0.00 0.00 0.00 59 1012.7